sat.trackr.live / text

‹ back to catalog

STARLINK-31882

NORAD 59855 · 2024-097W

PAYLOAD ACTIVE UNKNOWN

§ Identity

Operator
Country
US
Launch date
2024-05-23
Launch site
AFETR
Launch vehicle
Mass (kg)
RCS (m²)

Purposes: comms

External: N2YO · Heavens-Above · Gunter

§ Orbital elements

Epoch: 2026-09-21T07:15:21.223008Z

Period
94.27 min
Inclination
43.0001°
Eccentricity
0.0001004
Mean motion
15.27579156 rev/d
Perigee alt
482.4 km
Apogee alt
483.7 km
Semi-major
6,861.2 km
B*
2.2645e-5
RAAN
242.6682°
Arg perigee
273.1700°
Mean anomaly
86.9037°
Rev number
13,191

§ Raw data

STARLINK-318821 59855U 24097W   26264.30232897  .00000361  00000+0  22645-4 0  99902 59855  43.0001 242.6682 0001004 273.1700  86.9037 15.27579156131913

JSON: /api/v1/satellites/59855 · /tle

For live sub-satellite position, see the globe view (requires WebGL).

§ Visibility from observer

Set your observer location to see the next 7 days of passes ≥ 10°. The values pass through the URL so the page stays shareable.

No JS? Fill the form by hand. The geolocation button needs JavaScript.